| time (UTC) | temp C | wind direction | speed KPH | gust KPH | rain 1hr cm | rain 24hr cm | rain mn cm | humidity % | barometer mb |
| 20260509173824 | 16 | 171 | 9.7 | 17.7 | 0.00 | 0.00 | 0.00 | 65 | 1009.0 |
| 20260509173317 | 16 | 192 | 3.2 | 9.7 | 0.00 | 0.00 | 0.00 | 69 | 1009.1 |
| 20260509172828 | 16 | 290 | 1.6 | 11.3 | 0.00 | 0.00 | 0.00 | 69 | 1009.2 |
| 20260509172321 | 16 | 175 | 4.8 | 11.3 | 0.00 | 0.00 | 0.00 | 71 | 1009.4 |
| 20260509171817 | 15 | 54 | 1.6 | 9.7 | 0.00 | 0.00 | 0.00 | 71 | 1009.7 |
| 20260509171329 | 15 | 158 | 3.2 | 8.0 | 0.00 | 0.00 | 0.00 | 71 | 1009.8 |
| 20260509170822 | 15 | 37 | 1.6 | 8.0 | 0.00 | 0.00 | 0.00 | 72 | 1009.9 |
| 20260509170333 | 15 | 65 | 1.6 | 6.4 | 0.00 | 0.00 | 0.00 | 72 | 1010.0 |
| 20260509165822 | 15 | 178 | 3.2 | 8.0 | 0.00 | 0.00 | 0.00 | 71 | 1009.9 |
| 20260509165354 | 15 | 53 | 1.6 | 8.0 | 0.00 | 0.00 | 0.00 | 70 | 1010.0 |
| 20260509164844 | 15 | 44 | 3.2 | 8.0 | 0.00 | 0.00 | 0.00 | 70 | 1010.0 |
| 20260509164315 | 15 | 17 | 3.2 | 8.0 | 0.00 | 0.00 | 0.00 | 71 | 1010.1 |
| 20260509163827 | 15 | 33 | 1.6 | 8.0 | 0.00 | 0.00 | 0.00 | 70 | 1010.2 |
| 20260509163323 | 15 | 15 | 3.2 | 8.0 | 0.00 | 0.00 | 0.00 | 72 | 1010.3 |
| 20260509162815 | 15 | 296 | 4.8 | 11.3 | 0.00 | 0.00 | 0.00 | 69 | 1010.3 |
| 20260509162327 | 15 | 310 | 4.8 | 11.3 | 0.00 | 0.00 | 0.00 | 71 | 1010.3 |
| 20260509161818 | 14 | 288 | 4.8 | 12.9 | 0.00 | 0.00 | 0.00 | 71 | 1010.2 |
| 20260509161329 | 14 | 303 | 6.4 | 12.9 | 0.00 | 0.00 | 0.00 | 71 | 1010.1 |
| 20260509160821 | 14 | 23 | 4.8 | 11.3 | 0.00 | 0.00 | 0.00 | 72 | 1010.1 |
| 20260509160353 | 14 | 300 | 4.8 | 12.9 | 0.00 | 0.00 | 0.00 | 70 | 1010.1 |
| 20260509155842 | 14 | 313 | 6.4 | 12.9 | 0.00 | 0.00 | 0.00 | 69 | 1010.0 |
| 20260509155313 | 15 | 49 | 6.4 | 12.9 | 0.00 | 0.00 | 0.00 | 70 | 1010.0 |
| 20260509154825 | 14 | 19 | 6.4 | 12.9 | 0.00 | 0.00 | 0.00 | 72 | 1010.0 |
| 20260509154320 | 14 | 360 | 6.4 | 12.9 | 0.00 | 0.00 | 0.00 | 72 | 1010.1 |
| 20260509153833 | 14 | 297 | 6.4 | 9.7 | 0.00 | 0.00 | 0.00 | 72 | 1010.1 |
| 20260509153324 | 14 | 304 | 6.4 | 9.7 | 0.00 | 0.00 | 0.00 | 71 | 1010.2 |
| 20260509152816 | 15 | 288 | 4.8 | 12.9 | 0.00 | 0.00 | 0.00 | 69 | 1010.2 |
| 20260509152328 | 15 | 311 | 6.4 | 12.9 | 0.00 | 0.00 | 0.00 | 70 | 1010.1 |
| 20260509151820 | 15 | 360 | 4.8 | 12.9 | 0.00 | 0.00 | 0.00 | 70 | 1010.2 |
| 20260509151332 | 15 | 305 | 3.2 | 12.9 | 0.00 | 0.00 | 0.00 | 71 | 1010.1 |
| 20260509150845 | 15 | 303 | 4.8 | 8.0 | 0.00 | 0.00 | 0.00 | 70 | 1010.2 |
| 20260509150320 | 14 | 313 | 0.0 | 9.7 | 0.00 | 0.00 | 0.00 | 71 | 1010.2 |
| 20260509145852 | 14 | 13 | 3.2 | 12.9 | 0.00 | 0.00 | 0.00 | 72 | 1010.2 |
| 20260509145323 | 14 | 307 | 4.8 | 12.9 | 0.00 | 0.00 | 0.00 | 74 | 1010.1 |
| 20260509144815 | 14 | 313 | 3.2 | 11.3 | 0.00 | 0.00 | 0.00 | 72 | 1010.1 |
| 20260509144327 | 14 | 297 | 4.8 | 14.5 | 0.00 | 0.00 | 0.00 | 72 | 1010.1 |
| 20260509143819 | 14 | 304 | 6.4 | 14.5 | 0.00 | 0.00 | 0.00 | 74 | 1010.1 |
| 20260509143351 | 13 | 45 | 8.0 | 12.9 | 0.00 | 0.00 | 0.00 | 74 | 1010.1 |
| 20260509142822 | 13 | 313 | 6.4 | 9.7 | 0.00 | 0.00 | 0.00 | 73 | 1010.3 |
| 20260509142314 | 13 | 19 | 6.4 | 9.7 | 0.00 | 0.00 | 0.00 | 73 | 1010.3 |
| 20260509141827 | 13 | 9 | 4.8 | 9.7 | 0.00 | 0.00 | 0.00 | 74 | 1010.4 |
| 20260509141322 | 13 | 294 | 4.8 | 8.0 | 0.00 | 0.00 | 0.00 | 72 | 1010.4 |
| 20260509140814 | 13 | 24 | 0.0 | 4.8 | 0.00 | 0.00 | 0.00 | 74 | 1010.4 |
| 20260509140326 | 13 | 24 | 1.6 | 3.2 | 0.00 | 0.00 | 0.00 | 75 | 1010.5 |
| 20260509135817 | 12 | 284 | 0.0 | 3.2 | 0.00 | 0.00 | 0.00 | 74 | 1010.5 |
| 20260509135329 | 12 | 284 | 0.0 | 3.2 | 0.00 | 0.00 | 0.00 | 74 | 1010.4 |
| 20260509134820 | 12 | 284 | 1.6 | 3.2 | 0.00 | 0.00 | 0.00 | 73 | 1010.5 |
| 20260509134352 | 12 | 169 | 0.0 | 0.0 | 0.00 | 0.00 | 0.00 | 73 | 1010.4 |
| 20260509133844 | 12 | 169 | 0.0 | 1.6 | 0.00 | 0.00 | 0.00 | 73 | 1010.3 |
| 20260509133316 | 12 | 169 | 0.0 | 3.2 | 0.00 | 0.00 | 0.00 | 74 | 1010.4 |
| 20260509132831 | 12 | 171 | 0.0 | 8.0 | 0.00 | 0.00 | 0.00 | 74 | 1010.4 |
| 20260509132323 | 12 | 164 | 4.8 | 8.0 | 0.00 | 0.00 | 0.00 | 75 | 1010.2 |
| 20260509131815 | 12 | 49 | 0.0 | 6.4 | 0.00 | 0.00 | 0.00 | 75 | 1010.1 |
| 20260509131327 | 12 | 59 | 1.6 | 12.9 | 0.00 | 0.00 | 0.00 | 74 | 1010.1 |
| 20260509130819 | 12 | 311 | 4.8 | 14.5 | 0.00 | 0.00 | 0.00 | 75 | 1009.9 |
| 20260509130351 | 12 | 290 | 9.7 | 14.5 | 0.00 | 0.00 | 0.00 | 72 | 1009.9 |
| 20260509125819 | 12 | 311 | 6.4 | 11.3 | 0.00 | 0.00 | 0.00 | 71 | 1010.1 |
| 20260509125332 | 12 | 9 | 6.4 | 8.0 | 0.00 | 0.00 | 0.00 | 69 | 1010.3 |
| 20260509124824 | 12 | 28 | 3.2 | 4.8 | 0.00 | 0.00 | 0.00 | 69 | 1010.4 |
| 20260509124340 | 12 | 72 | 0.0 | 4.8 | 0.00 | 0.00 | 0.00 | 67 | 1010.5 |
| 20260509123851 | 12 | 9 | 1.6 | 4.8 | 0.00 | 0.00 | 0.00 | 66 | 1010.5 |
| 20260509123322 | 12 | 293 | 1.6 | 8.0 | 0.00 | 0.00 | 0.00 | 65 | 1010.5 |
| 20260509122854 | 12 | 291 | 4.8 | 8.0 | 0.00 | 0.00 | 0.00 | 63 | 1010.4 |
| 20260509122323 | 13 | 286 | 4.8 | 8.0 | 0.00 | 0.00 | 0.00 | 62 | 1010.4 |
| 20260509121815 | 13 | 298 | 4.8 | 11.3 | 0.00 | 0.00 | 0.00 | 61 | 1010.4 |
| 20260509121327 | 13 | 296 | 4.8 | 11.3 | 0.00 | 0.00 | 0.00 | 62 | 1010.3 |
| 20260509120839 | 13 | 311 | 4.8 | 8.0 | 0.00 | 0.00 | 0.00 | 63 | 1010.4 |
| 20260509120330 | 12 | 302 | 4.8 | 8.0 | 0.00 | 0.00 | 0.00 | 62 | 1010.4 |
| 20260509115819 | 12 | 311 | 4.8 | 8.0 | 0.00 | 0.00 | 0.00 | 63 | 1010.2 |
| 20260509115315 | 12 | 295 | 0.0 | 0.0 | 0.00 | 0.00 | 0.00 | 63 | 1010.4 |
| 20260509114827 | 12 | 46 | 0.0 | 1.6 | 0.00 | 0.00 | 0.00 | 62 | 1010.4 |
| 20260509114319 | 12 | 46 | 0.0 | 3.2 | 0.00 | 0.00 | 0.00 | 62 | 1010.3 |
| 20260509113831 | 12 | 46 | 0.0 | 4.8 | 0.00 | 0.00 | 0.00 | 61 | 1010.4 |
| 20260509113323 | 12 | 46 | 0.0 | 6.4 | 0.00 | 0.00 | 0.00 | 61 | 1010.2 |
| 20260509112814 | 12 | 46 | 1.6 | 4.8 | 0.00 | 0.00 | 0.00 | 60 | 1010.2 |
| 20260509112326 | 12 | 46 | 3.2 | 4.8 | 0.00 | 0.00 | 0.00 | 60 | 1010.2 |
| 20260509111837 | 12 | 304 | 1.6 | 3.2 | 0.00 | 0.00 | 0.00 | 63 | 1010.2 |
| 20260509111348 | 12 | 173 | 0.0 | 0.0 | 0.00 | 0.00 | 0.00 | 62 | 1010.2 |
| 20260509110819 | 12 | 173 | 0.0 | 0.0 | 0.00 | 0.00 | 0.00 | 62 | 1010.2 |
| 20260509110315 | 12 | 173 | 0.0 | 1.6 | 0.00 | 0.00 | 0.00 | 63 | 1010.1 |
| 20260509105825 | 12 | 173 | 0.0 | 3.2 | 0.00 | 0.00 | 0.00 | 61 | 1010.1 |
| 20260509105338 | 12 | 173 | 1.6 | 4.8 | 0.00 | 0.00 | 0.00 | 61 | 1010.0 |
| 20260509104829 | 12 | 306 | 1.6 | 8.0 | 0.00 | 0.00 | 0.00 | 61 | 1010.0 |
| 20260509104320 | 12 | 307 | 6.4 | 8.0 | 0.00 | 0.00 | 0.00 | 61 | 1009.9 |
| 20260509103832 | 12 | 300 | 4.8 | 8.0 | 0.00 | 0.00 | 0.00 | 61 | 1009.9 |
| 20260509103324 | 12 | 293 | 3.2 | 6.4 | 0.00 | 0.00 | 0.00 | 61 | 1009.8 |
| 20260509102836 | 12 | 300 | 3.2 | 6.4 | 0.00 | 0.00 | 0.00 | 61 | 1009.8 |
| 20260509102327 | 12 | 310 | 4.8 | 6.4 | 0.00 | 0.00 | 0.00 | 62 | 1009.7 |
| 20260509101822 | 12 | 302 | 4.8 | 6.4 | 0.00 | 0.00 | 0.00 | 62 | 1009.8 |
| 20260509101314 | 12 | 304 | 4.8 | 9.7 | 0.00 | 0.00 | 0.00 | 62 | 1009.8 |
| 20260509100827 | 13 | 309 | 6.4 | 11.3 | 0.00 | 0.00 | 0.00 | 58 | 1009.7 |
| 20260509100318 | 14 | 311 | 4.8 | 8.0 | 0.00 | 0.00 | 0.00 | 54 | 1009.5 |
| 20260509095828 | 14 | 130 | 0.0 | 4.8 | 0.00 | 0.00 | 0.00 | 51 | 1009.5 |
| 20260509095320 | 14 | 177 | 0.0 | 6.4 | 0.00 | 0.00 | 0.00 | 51 | 1009.3 |
| 20260509094832 | 14 | 164 | 3.2 | 8.0 | 0.00 | 0.00 | 0.00 | 51 | 1009.3 |
| 20260509094324 | 14 | 175 | 3.2 | 11.3 | 0.00 | 0.00 | 0.00 | 51 | 1009.3 |
| 20260509093819 | 14 | 174 | 3.2 | 11.3 | 0.00 | 0.00 | 0.00 | 51 | 1009.4 |
| 20260509093331 | 14 | 169 | 3.2 | 11.3 | 0.00 | 0.00 | 0.00 | 51 | 1009.3 |
| 20260509092843 | 14 | 152 | 4.8 | 11.3 | 0.00 | 0.00 | 0.00 | 51 | 1009.4 |
| 20260509092314 | 14 | 171 | 4.8 | 8.0 | 0.00 | 0.00 | 0.00 | 50 | 1009.4 |
| 20260509091847 | 14 | 167 | 6.4 | 11.3 | 0.00 | 0.00 | 0.00 | 50 | 1009.4 |
| 20260509091317 | 14 | 165 | 8.0 | 12.9 | 0.00 | 0.00 | 0.00 | 50 | 1009.4 |
| 20260509090850 | 14 | 173 | 8.0 | 12.9 | 0.00 | 0.00 | 0.00 | 51 | 1009.4 |
| 20260509090320 | 14 | 169 | 8.0 | 12.9 | 0.00 | 0.00 | 0.00 | 50 | 1009.4 |
| 20260509085830 | 14 | 166 | 9.7 | 14.5 | 0.00 | 0.00 | 0.00 | 50 | 1009.4 |
| 20260509085321 | 14 | 180 | 8.0 | 14.5 | 0.00 | 0.00 | 0.00 | 50 | 1009.4 |
| 20260509084817 | 14 | 163 | 4.8 | 11.3 | 0.00 | 0.00 | 0.00 | 51 | 1009.5 |
| 20260509084329 | 14 | 190 | 6.4 | 14.5 | 0.00 | 0.00 | 0.00 | 51 | 1009.4 |
| 20260509083821 | 14 | 172 | 6.4 | 11.3 | 0.00 | 0.00 | 0.00 | 52 | 1009.4 |
| 20260509083332 | 13 | 175 | 6.4 | 11.3 | 0.00 | 0.00 | 0.00 | 52 | 1009.5 |
| 20260509082825 | 14 | 163 | 4.8 | 9.7 | 0.00 | 0.00 | 0.00 | 53 | 1009.6 |
| 20260509082316 | 14 | 156 | 4.8 | 9.7 | 0.00 | 0.00 | 0.00 | 53 | 1009.5 |
| 20260509081828 | 14 | 172 | 6.4 | 9.7 | 0.00 | 0.00 | 0.00 | 53 | 1009.6 |
| 20260509081320 | 14 | 169 | 6.4 | 11.3 | 0.00 | 0.00 | 0.00 | 52 | 1009.7 |
| 20260509080815 | 14 | 172 | 8.0 | 12.9 | 0.00 | 0.00 | 0.00 | 52 | 1009.7 |
| 20260509080328 | 14 | 175 | 8.0 | 11.3 | 0.00 | 0.00 | 0.00 | 51 | 1009.7 |
| 20260509075817 | 15 | 165 | 6.4 | 11.3 | 0.00 | 0.00 | 0.00 | 51 | 1009.8 |
| 20260509075329 | 15 | 178 | 6.4 | 11.3 | 0.00 | 0.00 | 0.00 | 50 | 1009.8 |
| 20260509074821 | 15 | 185 | 6.4 | 12.9 | 0.00 | 0.00 | 0.00 | 50 | 1009.8 |
| 20260509074330 | 15 | 159 | 8.0 | 14.5 | 0.00 | 0.00 | 0.00 | 50 | 1009.8 |
| 20260509073822 | 15 | 180 | 8.0 | 11.3 | 0.00 | 0.00 | 0.00 | 50 | 1009.9 |
| 20260509073313 | 15 | 182 | 6.4 | 17.7 | 0.00 | 0.00 | 0.00 | 50 | 1009.9 |
| 20260509072826 | 15 | 176 | 8.0 | 17.7 | 0.00 | 0.00 | 0.00 | 50 | 1009.9 |
| 20260509072321 | 15 | 165 | 8.0 | 14.5 | 0.00 | 0.00 | 0.00 | 50 | 1009.8 |
| 20260509071854 | 15 | 172 | 8.0 | 11.3 | 0.00 | 0.00 | 0.00 | 50 | 1009.8 |
| 20260509071344 | 15 | 179 | 6.4 | 12.9 | 0.00 | 0.00 | 0.00 | 51 | 1009.8 |
| 20260509070815 | 15 | 183 | 8.0 | 12.9 | 0.00 | 0.00 | 0.00 | 51 | 1009.9 |
| 20260509070326 | 14 | 180 | 6.4 | 12.9 | 0.00 | 0.00 | 0.00 | 51 | 1009.9 |
| 20260509065816 | 14 | 184 | 6.4 | 12.9 | 0.00 | 0.00 | 0.00 | 52 | 1009.9 |
| 20260509065328 | 14 | 178 | 6.4 | 12.9 | 0.00 | 0.00 | 0.00 | 52 | 1010.0 |
| 20260509064819 | 14 | 175 | 8.0 | 11.3 | 0.00 | 0.00 | 0.00 | 52 | 1010.1 |
| 20260509064332 | 14 | 166 | 6.4 | 11.3 | 0.00 | 0.00 | 0.00 | 52 | 1010.0 |
| 20260509063828 | 14 | 171 | 6.4 | 12.9 | 0.00 | 0.00 | 0.00 | 53 | 1010.1 |
| 20260509063320 | 14 | 161 | 8.0 | 11.3 | 0.00 | 0.00 | 0.00 | 53 | 1010.1 |
| 20260509062832 | 13 | 165 | 8.0 | 12.9 | 0.00 | 0.00 | 0.00 | 54 | 1010.2 |
| 20260509062322 | 13 | 167 | 4.8 | 11.3 | 0.00 | 0.00 | 0.00 | 55 | 1010.3 |
| 20260509061813 | 13 | 175 | 3.2 | 11.3 | 0.00 | 0.00 | 0.00 | 54 | 1010.3 |
| 20260509061325 | 14 | 166 | 3.2 | 9.7 | 0.00 | 0.00 | 0.00 | 53 | 1010.2 |
| 20260509060836 | 14 | 176 | 4.8 | 9.7 | 0.00 | 0.00 | 0.00 | 53 | 1010.4 |
| 20260509060327 | 14 | 169 | 3.2 | 8.0 | 0.00 | 0.00 | 0.00 | 52 | 1010.5 |
| 20260509055817 | 14 | 162 | 3.2 | 8.0 | 0.00 | 0.00 | 0.00 | 52 | 1010.5 |
| 20260509055333 | 14 | 169 | 3.2 | 8.0 | 0.00 | 0.00 | 0.00 | 52 | 1010.5 |
| 20260509054825 | 14 | 197 | 3.2 | 8.0 | 0.00 | 0.00 | 0.00 | 52 | 1010.6 |
| 20260509054316 | 14 | 178 | 4.8 | 9.7 | 0.00 | 0.00 | 0.00 | 52 | 1010.6 |
| 20260509053829 | 14 | 167 | 6.4 | 12.9 | 0.00 | 0.00 | 0.00 | 53 | 1010.6 |
| 20260509053321 | 14 | 164 | 4.8 | 11.3 | 0.00 | 0.00 | 0.00 | 53 | 1010.5 |
| 20260509052832 | 13 | 172 | 6.4 | 11.3 | 0.00 | 0.00 | 0.00 | 53 | 1010.6 |
| 20260509052323 | 14 | 155 | 3.2 | 9.7 | 0.00 | 0.00 | 0.00 | 53 | 1010.6 |
| 20260509051815 | 14 | 119 | 1.6 | 8.0 | 0.00 | 0.00 | 0.00 | 53 | 1010.6 |
| 20260509051330 | 14 | 130 | 3.2 | 12.9 | 0.00 | 0.00 | 0.00 | 53 | 1010.6 |
| 20260509050823 | 14 | 142 | 4.8 | 12.9 | 0.00 | 0.00 | 0.00 | 52 | 1010.6 |
| 20260509050334 | 14 | 182 | 3.2 | 8.0 | 0.00 | 0.00 | 0.00 | 52 | 1010.6 |
| 20260509045823 | 15 | 173 | 3.2 | 9.7 | 0.00 | 0.00 | 0.00 | 52 | 1010.6 |
| 20260509045335 | 15 | 175 | 3.2 | 6.4 | 0.00 | 0.00 | 0.00 | 52 | 1010.4 |
| 20260509044826 | 15 | 155 | 3.2 | 6.4 | 0.00 | 0.00 | 0.00 | 52 | 1010.4 |
| 20260509044318 | 15 | 176 | 3.2 | 6.4 | 0.00 | 0.00 | 0.00 | 52 | 1010.4 |
| 20260509043830 | 15 | 175 | 3.2 | 8.0 | 0.00 | 0.00 | 0.00 | 52 | 1010.4 |
| 20260509043321 | 14 | 169 | 1.6 | 9.7 | 0.00 | 0.00 | 0.00 | 52 | 1010.4 |
| 20260509042853 | 14 | 178 | 4.8 | 9.7 | 0.00 | 0.00 | 0.00 | 53 | 1010.5 |
| 20260509042328 | 14 | 173 | 4.8 | 8.0 | 0.00 | 0.00 | 0.00 | 53 | 1010.5 |
| 20260509041840 | 14 | 165 | 3.2 | 6.4 | 0.00 | 0.00 | 0.00 | 53 | 1010.6 |
| 20260509041331 | 14 | 182 | 1.6 | 8.0 | 0.00 | 0.00 | 0.00 | 52 | 1010.6 |
| 20260509040822 | 15 | 167 | 3.2 | 6.4 | 0.00 | 0.00 | 0.00 | 51 | 1010.6 |
| 20260509040334 | 15 | 163 | 3.2 | 6.4 | 0.00 | 0.00 | 0.00 | 51 | 1010.5 |
| 20260509035823 | 15 | 173 | 3.2 | 8.0 | 0.00 | 0.00 | 0.00 | 51 | 1010.6 |
| 20260509035315 | 15 | 180 | 4.8 | 8.0 | 0.00 | 0.00 | 0.00 | 51 | 1010.5 |
| 20260509034826 | 15 | 169 | 6.4 | 9.7 | 0.00 | 0.00 | 0.00 | 50 | 1010.6 |
| 20260509034317 | 15 | 175 | 3.2 | 6.4 | 0.00 | 0.00 | 0.00 | 49 | 1010.6 |
| 20260509033829 | 15 | 173 | 4.8 | 8.0 | 0.00 | 0.00 | 0.00 | 49 | 1010.6 |
| 20260509033324 | 15 | 161 | 3.2 | 8.0 | 0.00 | 0.00 | 0.00 | 49 | 1010.6 |
| 20260509032816 | 15 | 171 | 1.6 | 6.4 | 0.00 | 0.00 | 0.00 | 49 | 1010.8 |
| 20260509032349 | 15 | 173 | 4.8 | 8.0 | 0.00 | 0.00 | 0.00 | 49 | 1010.9 |
| 20260509031818 | 15 | 165 | 6.4 | 8.0 | 0.00 | 0.00 | 0.00 | 49 | 1010.8 |
| 20260509031330 | 15 | 163 | 0.0 | 4.8 | 0.00 | 0.00 | 0.00 | 49 | 1010.7 |
| 20260509030842 | 15 | 163 | 1.6 | 4.8 | 0.00 | 0.00 | 0.00 | 49 | 1010.8 |
| 20260509030353 | 15 | 164 | 0.0 | 6.4 | 0.00 | 0.00 | 0.00 | 49 | 1010.8 |
| 20260509025822 | 15 | 161 | 0.0 | 3.2 | 0.00 | 0.00 | 0.00 | 51 | 1010.9 |
| 20260509025314 | 16 | 161 | 1.6 | 3.2 | 0.00 | 0.00 | 0.00 | 50 | 1011.1 |
| 20260509024826 | 16 | 161 | 0.0 | 3.2 | 0.00 | 0.00 | 0.00 | 46 | 1011.1 |
| 20260509024321 | 16 | 159 | 1.6 | 3.2 | 0.00 | 0.00 | 0.00 | 45 | 1011.0 |
| 20260509023813 | 16 | 159 | 0.0 | 1.6 | 0.00 | 0.00 | 0.00 | 48 | 1011.0 |
| 20260509023325 | 16 | 159 | 0.0 | 1.6 | 0.00 | 0.00 | 0.00 | 48 | 1011.1 |
| 20260509022817 | 16 | 159 | 0.0 | 1.6 | 0.00 | 0.00 | 0.00 | 46 | 1011.1 |
| 20260509022329 | 16 | 159 | 0.0 | 3.2 | 0.00 | 0.00 | 0.00 | 46 | 1011.1 |
| 20260509021821 | 16 | 159 | 0.0 | 3.2 | 0.00 | 0.00 | 0.00 | 45 | 1011.2 |
| 20260509021333 | 16 | 159 | 0.0 | 4.8 | 0.00 | 0.00 | 0.00 | 45 | 1011.1 |
| 20260509020824 | 16 | 162 | 1.6 | 8.0 | 0.00 | 0.00 | 0.00 | 45 | 1011.1 |
| 20260509020320 | 16 | 161 | 1.6 | 8.0 | 0.00 | 0.00 | 0.00 | 45 | 1011.1 |
| 20260509015850 | 16 | 157 | 1.6 | 3.2 | 0.00 | 0.00 | 0.00 | 46 | 1011.1 |
| 20260509015341 | 16 | 157 | 0.0 | 9.7 | 0.00 | 0.00 | 0.00 | 47 | 1011.0 |
| 20260509014832 | 16 | 157 | 3.2 | 9.7 | 0.00 | 0.00 | 0.00 | 47 | 1011.1 |
| 20260509014344 | 16 | 169 | 1.6 | 8.0 | 0.00 | 0.00 | 0.00 | 46 | 1011.1 |
| 20260509013815 | 15 | 164 | 3.2 | 8.0 | 0.00 | 0.00 | 0.00 | 46 | 1011.0 |
| 20260509013326 | 15 | 129 | 0.0 | 4.8 | 0.00 | 0.00 | 0.00 | 47 | 1011.0 |
| 20260509012818 | 15 | 69 | 0.0 | 4.8 | 0.00 | 0.00 | 0.00 | 47 | 1011.0 |
| 20260509012351 | 15 | 64 | 0.0 | 4.8 | 0.00 | 0.00 | 0.00 | 48 | 1011.0 |
| 20260509011822 | 15 | 75 | 0.0 | 3.2 | 0.00 | 0.00 | 0.00 | 48 | 1011.0 |
| 20260509011318 | 15 | 163 | 0.0 | 0.0 | 0.00 | 0.00 | 0.00 | 47 | 1010.9 |
| 20260509010830 | 16 | 163 | 0.0 | 4.8 | 0.00 | 0.00 | 0.00 | 47 | 1010.9 |
| 20260509010321 | 16 | 163 | 1.6 | 4.8 | 0.00 | 0.00 | 0.00 | 47 | 1010.9 |
| 20260509005851 | 16 | 141 | 0.0 | 3.2 | 0.00 | 0.00 | 0.00 | 46 | 1010.8 |
| 20260509005322 | 15 | 141 | 1.6 | 9.7 | 0.00 | 0.00 | 0.00 | 46 | 1010.9 |
| 20260509004814 | 15 | 142 | 0.0 | 0.0 | 0.00 | 0.00 | 0.00 | 45 | 1010.9 |
| 20260509004326 | 16 | 142 | 0.0 | 1.6 | 0.00 | 0.00 | 0.00 | 46 | 1010.9 |
| 20260509003818 | 16 | 142 | 0.0 | 1.6 | 0.00 | 0.00 | 0.00 | 46 | 1011.0 |
| 20260509003330 | 16 | 146 | 0.0 | 3.2 | 0.00 | 0.00 | 0.00 | 47 | 1011.0 |
| 20260509002825 | 16 | 145 | 0.0 | 11.3 | 0.00 | 0.00 | 0.00 | 47 | 1011.1 |
| 20260509002317 | 16 | 136 | 6.4 | 11.3 | 0.00 | 0.00 | 0.00 | 46 | 1010.9 |
| 20260509001829 | 16 | 20 | 0.0 | 0.0 | 0.00 | 0.00 | 0.00 | 44 | 1010.8 |
| 20260509001322 | 16 | 20 | 0.0 | 1.6 | 0.00 | 0.00 | 0.00 | 44 | 1010.7 |
| 20260509000814 | 16 | 20 | 0.0 | 1.6 | 0.00 | 0.00 | 0.00 | 43 | 1010.7 |
| 20260509000326 | 17 | 20 | 0.0 | 3.2 | 0.00 | 0.00 | 0.00 | 43 | 1010.7 |
| 20260508235815 | 17 | 20 | 0.0 | 1.6 | 0.00 | 0.00 | 0.00 | 43 | 1010.6 |
| 20260508235348 | 17 | 20 | 0.0 | 0.0 | 0.00 | 0.00 | 0.00 | 44 | 1010.6 |
| 20260508234818 | 17 | 20 | 0.0 | 0.0 | 0.00 | 0.00 | 0.00 | 43 | 1010.5 |
| 20260508234314 | 17 | 20 | 0.0 | 3.2 | 0.00 | 0.00 | 0.00 | 44 | 1010.5 |
| 20260508233826 | 17 | 20 | 0.0 | 3.2 | 0.00 | 0.00 | 0.00 | 44 | 1010.5 |
| 20260508233318 | 17 | 20 | 1.6 | 4.8 | 0.00 | 0.00 | 0.00 | 44 | 1010.5 |
| 20260508232830 | 17 | 16 | 1.6 | 8.0 | 0.00 | 0.00 | 0.00 | 43 | 1010.4 |
| 20260508232321 | 17 | 9 | 4.8 | 9.7 | 0.00 | 0.00 | 0.00 | 43 | 1010.3 |
| 20260508231813 | 18 | 9 | 3.2 | 8.0 | 0.00 | 0.00 | 0.00 | 45 | 1010.4 |
| 20260508231325 | 18 | 286 | 3.2 | 8.0 | 0.00 | 0.00 | 0.00 | 41 | 1010.4 |
| 20260508230816 | 18 | 291 | 1.6 | 6.4 | 0.00 | 0.00 | 0.00 | 39 | 1010.4 |
| 20260508230349 | 18 | 291 | 3.2 | 6.4 | 0.00 | 0.00 | 0.00 | 41 | 1010.3 |
| 20260508225822 | 18 | 313 | 0.0 | 11.3 | 0.00 | 0.00 | 0.00 | 39 | 1010.3 |
| 20260508225313 | 18 | 313 | 1.6 | 11.3 | 0.00 | 0.00 | 0.00 | 41 | 1010.3 |
| 20260508224825 | 18 | 304 | 3.2 | 11.3 | 0.00 | 0.00 | 0.00 | 42 | 1010.3 |
| 20260508224317 | 18 | 296 | 4.8 | 11.3 | 0.00 | 0.00 | 0.00 | 40 | 1010.3 |
| 20260508223829 | 18 | 272 | 1.6 | 12.9 | 0.00 | 0.00 | 0.00 | 40 | 1010.4 |
| 20260508223320 | 18 | 288 | 4.8 | 14.5 | 0.00 | 0.00 | 0.00 | 38 | 1010.4 |
| 20260508222852 | 18 | 288 | 9.7 | 14.5 | 0.00 | 0.00 | 0.00 | 39 | 1010.4 |
| 20260508222323 | 18 | 294 | 8.0 | 14.5 | 0.00 | 0.00 | 0.00 | 39 | 1010.4 |
| 20260508221818 | 18 | 270 | 8.0 | 14.5 | 0.00 | 0.00 | 0.00 | 38 | 1010.5 |
| 20260508221330 | 18 | 119 | 4.8 | 12.9 | 0.00 | 0.00 | 0.00 | 40 | 1010.5 |
| 20260508220843 | 18 | 152 | 3.2 | 12.9 | 0.00 | 0.00 | 0.00 | 43 | 1010.4 |
| 20260508220314 | 18 | 267 | 4.8 | 9.7 | 0.00 | 0.00 | 0.00 | 39 | 1010.4 |
| 20260508215824 | 18 | 313 | 3.2 | 11.3 | 0.00 | 0.00 | 0.00 | 40 | 1010.4 |
| 20260508215315 | 18 | 286 | 3.2 | 11.3 | 0.00 | 0.00 | 0.00 | 39 | 1010.4 |
| 20260508214827 | 18 | 48 | 1.6 | 11.3 | 0.00 | 0.00 | 0.00 | 41 | 1010.4 |
| 20260508214319 | 18 | 126 | 3.2 | 8.0 | 0.00 | 0.00 | 0.00 | 39 | 1010.5 |
| 20260508213831 | 18 | 146 | 4.8 | 14.5 | 0.00 | 0.00 | 0.00 | 38 | 1010.5 |
| 20260508213327 | 18 | 14 | 3.2 | 16.1 | 0.00 | 0.00 | 0.00 | 40 | 1010.5 |
| 20260508212819 | 18 | 313 | 8.0 | 17.7 | 0.00 | 0.00 | 0.00 | 40 | 1010.6 |
| 20260508212330 | 18 | 309 | 8.0 | 17.7 | 0.00 | 0.00 | 0.00 | 39 | 1010.6 |
| 20260508211822 | 18 | 22 | 3.2 | 8.0 | 0.00 | 0.00 | 0.00 | 39 | 1010.5 |
| 20260508211335 | 18 | 185 | 4.8 | 11.3 | 0.00 | 0.00 | 0.00 | 42 | 1010.6 |
| 20260508210826 | 18 | 109 | 1.6 | 12.9 | 0.00 | 0.00 | 0.00 | 41 | 1010.8 |
| 20260508210318 | 18 | 298 | 3.2 | 16.1 | 0.00 | 0.00 | 0.00 | 40 | 1010.8 |
| 20260508205848 | 18 | 298 | 6.4 | 16.1 | 0.00 | 0.00 | 0.00 | 38 | 1010.7 |
| 20260508205319 | 18 | 287 | 6.4 | 14.5 | 0.00 | 0.00 | 0.00 | 40 | 1010.7 |
| 20260508204814 | 18 | 293 | 6.4 | 14.5 | 0.00 | 0.00 | 0.00 | 39 | 1010.7 |
| 20260508204327 | 18 | 125 | 3.2 | 9.7 | 0.00 | 0.00 | 0.00 | 40 | 1010.8 |
| 20260508203839 | 18 | 284 | 4.8 | 12.9 | 0.00 | 0.00 | 0.00 | 41 | 1010.8 |
| 20260508203329 | 18 | 273 | 4.8 | 14.5 | 0.00 | 0.00 | 0.00 | 40 | 1010.9 |
| 20260508202821 | 18 | 313 | 4.8 | 19.3 | 0.00 | 0.00 | 0.00 | 37 | 1011.0 |
| 20260508202332 | 18 | 272 | 8.0 | 19.3 | 0.00 | 0.00 | 0.00 | 39 | 1011.0 |
| 20260508201825 | 18 | 260 | 8.0 | 17.7 | 0.00 | 0.00 | 0.00 | 35 | 1010.9 |
| 20260508201336 | 19 | 292 | 12.9 | 17.7 | 0.00 | 0.00 | 0.00 | 34 | 1011.0 |
| 20260508200828 | 19 | 227 | 8.0 | 17.7 | 0.00 | 0.00 | 0.00 | 36 | 1011.1 |
| 20260508200319 | 19 | 30 | 8.0 | 16.1 | 0.00 | 0.00 | 0.00 | 37 | 1011.0 |
| 20260508195835 | 18 | 84 | 4.8 | 22.5 | 0.00 | 0.00 | 0.00 | 37 | 1011.2 |
| 20260508195327 | 19 | 313 | 4.8 | 22.5 | 0.00 | 0.00 | 0.00 | 37 | 1011.3 |
| 20260508194819 | 18 | 309 | 8.0 | 17.7 | 0.00 | 0.00 | 0.00 | 38 | 1011.3 |
| 20260508194331 | 18 | 99 | 6.4 | 14.5 | 0.00 | 0.00 | 0.00 | 38 | 1011.3 |
| 20260508193822 | 18 | 153 | 6.4 | 14.5 | 0.00 | 0.00 | 0.00 | 38 | 1011.3 |
| 20260508193313 | 18 | 306 | 6.4 | 20.9 | 0.00 | 0.00 | 0.00 | 38 | 1011.3 |
| 20260508192827 | 18 | 305 | 6.4 | 24.1 | 0.00 | 0.00 | 0.00 | 36 | 1011.4 |
| 20260508192318 | 19 | 291 | 11.3 | 24.1 | 0.00 | 0.00 | 0.00 | 35 | 1011.4 |
| 20260508191813 | 19 | 271 | 4.8 | 19.3 | 0.00 | 0.00 | 0.00 | 35 | 1011.4 |
| 20260508191325 | 19 | 165 | 6.4 | 20.9 | 0.00 | 0.00 | 0.00 | 34 | 1011.6 |
| 20260508190816 | 20 | 309 | 9.7 | 20.9 | 0.00 | 0.00 | 0.00 | 33 | 1011.6 |
| 20260508190349 | 20 | 170 | 9.7 | 16.1 | 0.00 | 0.00 | 0.00 | 34 | 1011.8 |
| 20260508185839 | 20 | 168 | 8.0 | 24.1 | 0.00 | 0.00 | 0.00 | 34 | 1011.6 |
| 20260508185350 | 20 | 163 | 11.3 | 19.3 | 0.00 | 0.00 | 0.00 | 36 | 1011.7 |
| 20260508184821 | 20 | 146 | 9.7 | 17.7 | 0.00 | 0.00 | 0.00 | 35 | 1012.0 |
| 20260508184313 | 19 | 66 | 6.4 | 20.9 | 0.00 | 0.00 | 0.00 | 34 | 1012.0 |
| 20260508183824 | 19 | 294 | 8.0 | 20.9 | 0.00 | 0.00 | 0.00 | 37 | 1012.0 |
| 20260508183337 | 19 | 9 | 9.7 | 22.5 | 0.00 | 0.00 | 0.00 | 36 | 1012.0 |
| 20260508182828 | 19 | 281 | 8.0 | 22.5 | 0.00 | 0.00 | 0.00 | 40 | 1012.1 |
| 20260508182324 | 18 | 107 | 6.4 | 16.1 | 0.00 | 0.00 | 0.00 | 36 | 1012.1 |
| 20260508181816 | 18 | 140 | 8.0 | 17.7 | 0.00 | 0.00 | 0.00 | 38 | 1012.1 |
| 20260508181348 | 18 | 182 | 9.7 | 17.7 | 0.00 | 0.00 | 0.00 | 38 | 1012.2 |
| 20260508180818 | 18 | 184 | 8.0 | 17.7 | 0.00 | 0.00 | 0.00 | 37 | 1012.3 |
| 20260508180330 | 18 | 123 | 8.0 | 14.5 | 0.00 | 0.00 | 0.00 | 40 | 1012.4 |
| 20260508175822 | 17 | 144 | 6.4 | 14.5 | 0.00 | 0.00 | 0.00 | 40 | 1012.3 |
| 20260508175314 | 17 | 119 | 6.4 | 19.3 | 0.00 | 0.00 | 0.00 | 41 | 1012.3 |
| 20260508174826 | 17 | 146 | 6.4 | 19.3 | 0.00 | 0.00 | 0.00 | 36 | 1012.5 |
| 20260508174318 | 18 | 286 | 8.0 | 14.5 | 0.00 | 0.00 | 0.00 | 35 | 1012.7 |